Time,TemperatureF,DewpointF,PressureIn,WindDirection,WindDirectionDegrees,WindSpeedMPH,WindSpeedGustMPH,Humidity,HourlyPrecipIn,Conditions,Clouds,dailyrainin,SoftwareType,DateUTC
2013-03-02 00:00:00,35.4,-5.1,29.23,WNW,300,0.0,3.1,17,0.00,,---,0.00,VWS V13.01,2013-03-02 05:00:00,
2013-03-02 00:01:00,35.4,-5.1,29.23,NW,310,4.0,4.0,17,0.00,,---,0.00,VWS V13.01,2013-03-02 05:01:00,
2013-03-02 00:03:00,35.4,-5.1,29.23,WNW,285,2.2,4.0,17,0.00,,---,0.00,VWS V13.01,2013-03-02 05:03:00,
2013-03-02 00:08:00,35.4,-5.1,29.23,West,269,0.0,4.0,17,0.00,,---,0.00,VWS V13.01,2013-03-02 05:08:00,
2013-03-02 00:13:00,35.4,-5.1,29.23,West,269,0.0,0.0,17,0.00,,---,0.00,VWS V13.01,2013-03-02 05:13:00,
2013-03-02 00:19:00,35.2,-5.2,29.23,West,269,0.0,0.0,17,0.00,,---,0.00,VWS V13.01,2013-03-02 05:19:00,
2013-03-02 00:24:00,35.1,-5.3,29.23,West,269,0.0,0.0,17,0.00,,---,0.00,VWS V13.01,2013-03-02 05:24:00,
2013-03-02 00:29:00,35.1,-5.3,29.23,West,269,0.0,3.1,17,0.00,,---,0.00,VWS V13.01,2013-03-02 05:29:00,
2013-03-02 00:34:00,35.1,-5.3,29.23,West,269,0.0,0.0,17,0.00,,---,0.00,VWS V13.01,2013-03-02 05:34:00,
2013-03-02 00:39:00,35.1,-5.3,29.23,West,269,0.0,0.0,17,0.00,,---,0.00,VWS V13.01,2013-03-02 05:39:00,
2013-03-02 00:44:00,35.1,-5.3,29.23,NW,319,0.0,3.1,17,0.00,,---,0.00,VWS V13.01,2013-03-02 05:44:00,
2013-03-02 00:49:00,35.1,-5.3,29.23,NW,319,0.0,3.6,17,0.00,,---,0.00,VWS V13.01,2013-03-02 05:49:00,
2013-03-02 00:54:00,34.9,-5.5,29.23,NW,325,0.0,0.0,17,0.00,,---,0.00,VWS V13.01,2013-03-02 05:54:00,
2013-03-02 00:59:00,35.1,-5.3,29.23,NW,324,3.6,3.6,17,0.00,,---,0.00,VWS V13.01,2013-03-02 05:59:00,
2013-03-02 01:04:00,34.9,-5.5,29.23,NW,314,0.0,3.6,17,0.00,,---,0.00,VWS V13.01,2013-03-02 06:04:00,
2013-03-02 01:09:00,34.9,-5.5,29.23,NNW,346,2.7,4.0,17,0.00,,---,0.00,VWS V13.01,2013-03-02 06:09:00,
2013-03-02 01:14:00,34.9,-5.5,29.23,NNW,334,0.0,0.0,17,0.00,,---,0.00,VWS V13.01,2013-03-02 06:14:00,
2013-03-02 01:19:00,34.9,-5.5,29.23,NNW,333,0.0,3.6,17,0.00,,---,0.00,VWS V13.01,2013-03-02 06:19:00,
2013-03-02 01:24:00,34.9,-5.5,29.23,WNW,286,0.0,2.7,17,0.00,,---,0.00,VWS V13.01,2013-03-02 06:24:00,
2013-03-02 01:29:00,34.7,-5.6,29.23,WNW,296,0.0,3.1,17,0.00,,---,0.00,VWS V13.01,2013-03-02 06:29:00,
2013-03-02 01:34:00,34.7,-5.6,29.23,WNW,297,0.0,4.0,17,0.00,,---,0.00,VWS V13.01,2013-03-02 06:34:00,
2013-03-02 01:39:00,34.7,-5.6,29.23,NW,319,0.0,5.4,17,0.00,,---,0.00,VWS V13.01,2013-03-02 06:39:00,
2013-03-02 01:45:00,34.5,-5.8,29.23,NW,319,0.0,3.6,17,0.00,,---,0.00,VWS V13.01,2013-03-02 06:45:00,
2013-03-02 01:50:00,34.5,-5.8,29.23,NW,319,0.0,0.0,17,0.00,,---,0.00,VWS V13.01,2013-03-02 06:50:00,
2013-03-02 01:55:00,34.3,-5.9,29.23,West,281,2.2,4.9,17,0.00,,---,0.00,VWS V13.01,2013-03-02 06:55:00,
2013-03-02 02:00:00,34.3,-5.9,29.23,West,272,0.0,2.2,17,0.00,,---,0.00,VWS V13.01,2013-03-02 07:00:00,
2013-03-02 02:05:00,34.2,-6.1,29.23,WNW,288,3.6,3.6,17,0.00,,---,0.00,VWS V13.01,2013-03-02 07:05:00,
2013-03-02 02:10:00,34.0,-6.2,29.23,NW,305,0.0,0.0,17,0.00,,---,0.00,VWS V13.01,2013-03-02 07:10:00,
2013-03-02 02:15:00,33.8,-6.4,29.23,NW,305,0.0,0.0,17,0.00,,---,0.00,VWS V13.01,2013-03-02 07:15:00,
2013-03-02 02:20:00,33.6,-5.3,29.23,NW,305,0.0,0.0,18,0.00,,---,0.00,VWS V13.01,2013-03-02 07:20:00,
2013-03-02 02:25:00,33.6,-5.3,29.23,NW,305,0.0,0.0,18,0.00,,---,0.00,VWS V13.01,2013-03-02 07:25:00,
2013-03-02 02:31:00,33.4,-5.5,29.23,NW,305,0.0,0.0,18,0.00,,---,0.00,VWS V13.01,2013-03-02 07:31:00,
2013-03-02 02:36:00,33.3,-5.7,29.23,NW,305,0.0,0.0,18,0.00,,---,0.00,VWS V13.01,2013-03-02 07:36:00,
2013-03-02 02:41:00,33.3,-5.7,29.23,NW,305,0.0,0.0,18,0.00,,---,0.00,VWS V13.01,2013-03-02 07:41:00,
2013-03-02 02:46:00,33.3,-5.7,29.23,NW,305,0.0,0.0,18,0.00,,---,0.00,VWS V13.01,2013-03-02 07:46:00,
2013-03-02 02:51:00,33.1,-5.8,29.21,NW,305,0.0,0.0,18,0.00,,---,0.00,VWS V13.01,2013-03-02 07:51:00,
2013-03-02 02:56:00,33.1,-5.8,29.21,NW,305,0.0,0.0,18,0.00,,---,0.00,VWS V13.01,2013-03-02 07:56:00,
2013-03-02 03:01:00,33.1,-5.8,29.21,NW,305,0.0,0.0,18,0.00,,---,0.00,VWS V13.01,2013-03-02 08:01:00,
2013-03-02 03:06:00,33.1,-5.8,29.21,NW,305,0.0,0.0,18,0.00,,---,0.00,VWS V13.01,2013-03-02 08:06:00,
2013-03-02 03:11:00,33.1,-5.8,29.21,NW,305,0.0,0.0,18,0.00,,---,0.00,VWS V13.01,2013-03-02 08:11:00,
2013-03-02 03:16:00,33.3,-5.7,29.21,NW,305,0.0,0.0,18,0.00,,---,0.00,VWS V13.01,2013-03-02 08:16:00,
2013-03-02 03:21:00,33.3,-5.7,29.21,NW,305,0.0,0.0,18,0.00,,---,0.00,VWS V13.01,2013-03-02 08:21:00,
2013-03-02 03:27:00,33.3,-5.7,29.21,NW,305,0.0,0.0,18,0.00,,---,0.00,VWS V13.01,2013-03-02 08:27:00,
2013-03-02 03:32:00,33.3,-5.7,29.21,NW,305,0.0,0.0,18,0.00,,---,0.00,VWS V13.01,2013-03-02 08:32:00,
2013-03-02 03:37:00,33.3,-5.7,29.21,NW,305,0.0,0.0,18,0.00,,---,0.00,VWS V13.01,2013-03-02 08:37:00,
2013-03-02 03:42:00,33.3,-5.7,29.21,NW,305,0.0,0.0,18,0.00,,---,0.00,VWS V13.01,2013-03-02 08:42:00,
2013-03-02 03:47:00,33.3,-5.7,29.21,NW,305,0.0,0.0,18,0.00,,---,0.00,VWS V13.01,2013-03-02 08:47:00,
2013-03-02 03:52:00,33.3,-5.7,29.21,NW,305,2.7,3.1,18,0.00,,---,0.00,VWS V13.01,2013-03-02 08:52:00,
2013-03-02 03:57:00,33.3,-5.7,29.21,NW,305,0.0,0.0,18,0.00,,---,0.00,VWS V13.01,2013-03-02 08:57:00,
2013-03-02 04:02:00,33.3,-5.7,29.21,NW,305,0.0,0.0,18,0.00,,---,0.00,VWS V13.01,2013-03-02 09:02:00,
2013-03-02 04:07:00,33.3,-5.7,29.21,NW,305,0.0,0.0,18,0.00,,---,0.00,VWS V13.01,2013-03-02 09:07:00,
2013-03-02 04:12:00,33.3,-5.7,29.21,NW,305,0.0,0.0,18,0.00,,---,0.00,VWS V13.01,2013-03-02 09:12:00,
2013-03-02 04:17:00,33.4,-5.5,29.21,NW,305,0.0,0.0,18,0.00,,---,0.00,VWS V13.01,2013-03-02 09:17:00,
2013-03-02 04:22:00,33.4,-5.5,29.21,NW,305,0.0,0.0,18,0.00,,---,0.00,VWS V13.01,2013-03-02 09:22:00,
2013-03-02 04:27:00,33.4,-5.5,29.21,NW,305,0.0,3.1,18,0.00,,---,0.00,VWS V13.01,2013-03-02 09:27:00,
2013-03-02 04:33:00,33.4,-5.5,29.21,NW,305,2.7,3.6,18,0.00,,---,0.00,VWS V13.01,2013-03-02 09:33:00,
2013-03-02 04:38:00,33.4,-5.5,29.21,NW,305,3.6,3.6,18,0.00,,---,0.00,VWS V13.01,2013-03-02 09:38:00,
2013-03-02 04:43:00,33.6,-5.3,29.21,NW,305,0.0,2.7,18,0.00,,---,0.00,VWS V13.01,2013-03-02 09:43:00,
2013-03-02 04:48:00,33.6,-5.3,29.21,NW,305,0.0,2.7,18,0.00,,---,0.00,VWS V13.01,2013-03-02 09:48:00,
2013-03-02 04:53:00,33.6,-5.3,29.21,NW,305,2.7,2.7,18,0.00,,---,0.00,VWS V13.01,2013-03-02 09:53:00,
2013-03-02 04:58:00,33.6,-5.3,29.21,NW,305,0.0,2.2,18,0.00,,---,0.00,VWS V13.01,2013-03-02 09:58:00,
2013-03-02 05:03:00,33.6,-5.3,29.21,NW,305,0.0,0.0,18,0.00,,---,0.00,VWS V13.01,2013-03-02 10:03:00,
2013-03-02 05:09:00,33.4,-5.5,29.21,NW,305,0.0,0.0,18,0.00,,---,0.00,VWS V13.01,2013-03-02 10:09:00,
2013-03-02 05:14:00,33.4,-5.5,29.21,NW,305,0.0,0.0,18,0.00,,---,0.00,VWS V13.01,2013-03-02 10:14:00,
2013-03-02 05:19:00,33.3,-5.7,29.21,NW,305,0.0,0.0,18,0.00,,---,0.00,VWS V13.01,2013-03-02 10:19:00,
2013-03-02 05:25:00,33.3,-5.7,29.21,NW,305,0.0,0.0,18,0.00,,---,0.00,VWS V13.01,2013-03-02 10:25:00,
2013-03-02 05:30:00,33.1,-5.8,29.21,NW,305,0.0,0.0,18,0.00,,---,0.00,VWS V13.01,2013-03-02 10:30:00,
2013-03-02 05:36:00,33.1,-5.8,29.21,NW,305,0.0,0.0,18,0.00,,---,0.00,VWS V13.01,2013-03-02 10:36:00,
2013-03-02 05:43:00,32.9,-5.9,29.21,NW,305,0.0,0.0,18,0.00,,---,0.00,VWS V13.01,2013-03-02 10:43:00,
2013-03-02 05:48:00,33.1,-5.8,29.21,NW,305,0.0,0.0,18,0.00,,---,0.00,VWS V13.01,2013-03-02 10:48:00,
2013-03-02 05:53:00,33.1,-5.8,29.21,NW,305,0.0,0.0,18,0.00,,---,0.00,VWS V13.01,2013-03-02 10:53:00,
2013-03-02 05:58:00,32.9,-5.9,29.21,NW,305,0.0,0.0,18,0.00,,---,0.00,VWS V13.01,2013-03-02 10:58:00,
2013-03-02 06:03:00,32.7,-6.1,29.21,NW,305,0.0,0.0,18,0.00,,---,0.00,VWS V13.01,2013-03-02 11:03:00,
2013-03-02 06:08:00,32.7,-6.1,29.21,NW,305,0.0,0.0,18,0.00,,---,0.00,VWS V13.01,2013-03-02 11:08:00,
2013-03-02 06:13:00,32.9,-5.9,29.21,NW,305,0.0,0.0,18,0.00,,---,0.00,VWS V13.01,2013-03-02 11:13:00,
2013-03-02 06:18:00,32.9,-5.9,29.21,NW,305,0.0,0.0,18,0.00,,---,0.00,VWS V13.01,2013-03-02 11:18:00,
2013-03-02 06:23:00,32.9,-5.9,29.21,NW,305,0.0,0.0,18,0.00,,---,0.00,VWS V13.01,2013-03-02 11:23:00,
2013-03-02 06:28:00,32.9,-5.9,29.21,NW,305,0.0,0.0,18,0.00,,---,0.00,VWS V13.01,2013-03-02 11:28:00,
2013-03-02 06:34:00,32.9,-5.9,29.21,NW,305,0.0,0.0,18,0.00,,---,0.00,VWS V13.01,2013-03-02 11:34:00,
2013-03-02 06:39:00,32.9,-5.9,29.21,NW,305,0.0,0.0,18,0.00,,---,0.00,VWS V13.01,2013-03-02 11:39:00,
2013-03-02 06:44:00,32.7,-6.1,29.21,NW,305,0.0,0.0,18,0.00,,---,0.00,VWS V13.01,2013-03-02 11:44:00,
2013-03-02 06:49:00,32.7,-6.1,29.21,NW,305,0.0,0.0,18,0.00,,---,0.00,VWS V13.01,2013-03-02 11:49:00,
2013-03-02 06:54:00,32.7,-6.1,29.21,NW,305,0.0,0.0,18,0.00,,---,0.00,VWS V13.01,2013-03-02 11:54:00,
2013-03-02 06:59:00,32.7,-6.1,29.21,NW,305,0.0,0.0,18,0.00,,---,0.00,VWS V13.01,2013-03-02 11:59:00,
2013-03-02 07:04:00,32.5,-6.2,29.21,NW,305,0.0,0.0,18,0.00,,---,0.00,VWS V13.01,2013-03-02 12:04:00,
2013-03-02 07:09:00,32.5,-6.2,29.21,NW,305,0.0,0.0,18,0.00,,---,0.00,VWS V13.01,2013-03-02 12:09:00,
2013-03-02 07:14:00,32.4,-6.4,29.21,NW,305,0.0,0.0,18,0.00,,---,0.00,VWS V13.01,2013-03-02 12:14:00,
2013-03-02 07:19:00,32.4,-6.4,29.21,NW,305,0.0,0.0,18,0.00,,---,0.00,VWS V13.01,2013-03-02 12:19:00,
2013-03-02 07:25:00,32.4,-6.4,29.21,NW,305,0.0,0.0,18,0.00,,---,0.00,VWS V13.01,2013-03-02 12:25:00,
2013-03-02 07:30:00,32.2,-6.6,29.21,NW,305,0.0,0.0,18,0.00,,---,0.00,VWS V13.01,2013-03-02 12:30:00,
2013-03-02 07:35:00,32.4,-6.4,29.21,NW,305,0.0,0.0,18,0.00,,---,0.00,VWS V13.01,2013-03-02 12:35:00,
2013-03-02 07:40:00,32.4,-6.4,29.21,NW,305,0.0,0.0,18,0.00,,---,0.00,VWS V13.01,2013-03-02 12:40:00,
2013-03-02 07:45:00,32.5,-6.2,29.21,NW,305,0.0,0.0,18,0.00,,---,0.00,VWS V13.01,2013-03-02 12:45:00,
2013-03-02 07:50:00,32.7,-6.1,29.21,NW,305,0.0,0.0,18,0.00,,---,0.00,VWS V13.01,2013-03-02 12:50:00,
2013-03-02 07:55:00,32.9,-5.9,29.21,NW,305,0.0,0.0,18,0.00,,---,0.00,VWS V13.01,2013-03-02 12:55:00,
2013-03-02 08:00:00,33.1,-5.8,29.21,NW,305,0.0,0.0,18,0.00,,---,0.00,VWS V13.01,2013-03-02 13:00:00,
2013-03-02 08:06:00,33.3,-5.7,29.21,NW,305,0.0,0.0,18,0.00,,---,0.00,VWS V13.01,2013-03-02 13:06:00,
2013-03-02 08:11:00,36.3,-4.3,29.21,NW,305,0.0,0.0,17,0.00,,---,0.00,VWS V13.01,2013-03-02 13:11:00,
2013-03-02 08:16:00,39.4,-3.1,29.21,NW,305,0.0,0.0,16,0.00,,---,0.00,VWS V13.01,2013-03-02 13:16:00,
2013-03-02 08:21:00,41.5,-1.3,29.21,NW,326,4.0,4.0,16,0.00,,---,0.00,VWS V13.01,2013-03-02 13:21:00,
2013-03-02 08:26:00,42.8,-1.6,29.21,NW,313,5.4,5.4,15,0.00,,---,0.00,VWS V13.01,2013-03-02 13:26:00,
2013-03-02 08:32:00,45.1,0.3,29.21,NNW,335,3.6,5.4,15,0.00,,---,0.00,VWS V13.01,2013-03-02 13:32:00,
2013-03-02 08:37:00,46.6,-0.1,29.23,NW,323,3.6,4.9,14,0.00,,---,0.00,VWS V13.01,2013-03-02 13:37:00,
2013-03-02 08:42:00,46.0,1.0,29.23,NW,323,6.3,8.3,15,0.00,,---,0.00,VWS V13.01,2013-03-02 13:42:00,
2013-03-02 08:47:00,45.7,0.7,29.23,WNW,302,7.6,7.6,15,0.00,,---,0.00,VWS V13.01,2013-03-02 13:47:00,
2013-03-02 08:52:00,44.6,-0.2,29.23,NW,314,5.8,6.7,15,0.00,,---,0.00,VWS V13.01,2013-03-02 13:52:00,
2013-03-02 08:57:00,44.8,0.0,29.23,NW,321,5.4,8.1,15,0.00,,---,0.00,VWS V13.01,2013-03-02 13:57:00,
2013-03-02 09:03:00,44.2,-0.5,29.21,NNW,339,5.8,8.7,15,0.00,,---,0.00,VWS V13.01,2013-03-02 14:03:00,
2013-03-02 09:08:00,43.7,-0.9,29.21,NW,308,5.4,11.0,15,0.00,,---,0.00,VWS V13.01,2013-03-02 14:08:00,
2013-03-02 09:13:00,44.6,-0.2,29.21,NW,307,5.4,8.1,15,0.00,,---,0.00,VWS V13.01,2013-03-02 14:13:00,
2013-03-02 09:18:00,44.2,-0.5,29.23,North,353,4.0,8.7,15,0.00,,---,0.00,VWS V13.01,2013-03-02 14:18:00,
2013-03-02 09:23:00,43.3,-1.2,29.23,North,353,10.5,11.4,15,0.00,,---,0.00,VWS V13.01,2013-03-02 14:23:00,
2013-03-02 09:28:00,43.0,-1.5,29.23,NW,319,8.3,8.7,15,0.00,,---,0.00,VWS V13.01,2013-03-02 14:28:00,
2013-03-02 09:34:00,41.7,-1.2,29.23,NNW,330,8.1,11.0,16,0.00,,---,0.00,VWS V13.01,2013-03-02 14:34:00,
2013-03-02 09:39:00,41.7,-1.2,29.23,NW,324,8.7,8.7,16,0.00,,---,0.00,VWS V13.01,2013-03-02 14:39:00,
2013-03-02 09:44:00,41.5,-1.3,29.23,NW,310,3.1,11.0,16,0.00,,---,0.00,VWS V13.01,2013-03-02 14:44:00,
2013-03-02 09:49:00,43.3,-1.2,29.23,WNW,287,5.8,8.3,15,0.00,,---,0.00,VWS V13.01,2013-03-02 14:49:00,
2013-03-02 09:54:00,44.1,-0.6,29.23,North,0,8.3,8.3,15,0.00,,---,0.00,VWS V13.01,2013-03-02 14:54:00,
2013-03-02 10:00:00,44.8,0.0,29.23,NNW,342,6.3,8.7,15,0.00,,---,0.00,VWS V13.01,2013-03-02 15:00:00,
2013-03-02 10:05:00,44.2,-0.5,29.23,NNW,343,7.6,12.3,15,0.00,,---,0.00,VWS V13.01,2013-03-02 15:05:00,
2013-03-02 10:10:00,43.9,-0.8,29.23,NNW,330,8.3,12.3,15,0.00,,---,0.00,VWS V13.01,2013-03-02 15:10:00,
2013-03-02 10:15:00,44.1,-0.6,29.23,NNW,341,10.1,10.1,15,0.00,,---,0.00,VWS V13.01,2013-03-02 15:15:00,
2013-03-02 10:20:00,44.6,-0.2,29.23,NE,48,9.2,9.2,15,0.00,,---,0.00,VWS V13.01,2013-03-02 15:20:00,
2013-03-02 10:25:00,45.7,0.7,29.23,NNW,332,5.4,8.1,15,0.00,,---,0.00,VWS V13.01,2013-03-02 15:25:00,
2013-03-02 10:31:00,46.6,-0.1,29.23,NNE,26,6.3,8.3,14,0.00,,---,0.00,VWS V13.01,2013-03-02 15:31:00,
2013-03-02 10:36:00,46.2,1.1,29.23,NW,326,5.8,6.3,15,0.00,,---,0.00,VWS V13.01,2013-03-02 15:36:00,
2013-03-02 10:41:00,47.1,0.4,29.23,NNW,327,10.5,10.5,14,0.00,,---,0.00,VWS V13.01,2013-03-02 15:41:00,
2013-03-02 10:46:00,47.5,0.7,29.23,NNW,344,8.7,8.7,14,0.00,,---,0.00,VWS V13.01,2013-03-02 15:46:00,
2013-03-02 10:51:00,46.8,0.1,29.23,NNW,330,5.8,8.3,14,0.00,,---,0.00,VWS V13.01,2013-03-02 15:51:00,
2013-03-02 10:56:00,47.3,0.5,29.23,NNW,331,3.6,8.3,14,0.00,,---,0.00,VWS V13.01,2013-03-02 15:56:00,
2013-03-02 11:02:00,47.8,1.0,29.23,NNW,331,6.3,6.3,14,0.00,,---,0.00,VWS V13.01,2013-03-02 16:02:00,
2013-03-02 11:07:00,46.0,1.0,29.23,NW,314,8.7,8.7,15,0.00,,---,0.00,VWS V13.01,2013-03-02 16:07:00,
2013-03-02 11:12:00,44.8,0.0,29.23,North,353,5.8,8.1,15,0.00,,---,0.00,VWS V13.01,2013-03-02 16:12:00,
2013-03-02 11:17:00,44.8,0.0,29.23,North,0,7.6,8.7,15,0.00,,---,0.00,VWS V13.01,2013-03-02 16:17:00,
2013-03-02 11:22:00,45.7,0.7,29.23,NW,323,7.2,8.3,15,0.00,,---,0.00,VWS V13.01,2013-03-02 16:22:00,
2013-03-02 11:28:00,46.6,-0.1,29.23,North,353,6.3,8.1,14,0.00,,---,0.00,VWS V13.01,2013-03-02 16:28:00,
2013-03-02 11:33:00,46.0,1.0,29.23,NW,319,8.1,8.1,15,0.00,,---,0.00,VWS V13.01,2013-03-02 16:33:00,
2013-03-02 11:38:00,44.6,-0.2,29.23,NNW,327,3.6,8.1,15,0.00,,---,0.00,VWS V13.01,2013-03-02 16:38:00,
2013-03-02 11:43:00,44.8,0.0,29.23,NW,321,3.6,5.8,15,0.00,,---,0.00,VWS V13.01,2013-03-02 16:43:00,
2013-03-02 11:49:00,44.1,-0.6,29.23,NNW,337,8.3,8.3,15,0.00,,---,0.00,VWS V13.01,2013-03-02 16:49:00,
2013-03-02 11:54:00,43.5,-1.1,29.23,WSW,245,6.3,8.1,15,0.00,,---,0.00,VWS V13.01,2013-03-02 16:54:00,
2013-03-02 11:59:00,44.4,-0.3,29.23,WNW,301,5.4,8.1,15,0.00,,---,0.00,VWS V13.01,2013-03-02 16:59:00,
2013-03-02 12:04:00,45.0,0.1,29.23,NNW,331,2.2,8.1,15,0.00,,---,0.00,VWS V13.01,2013-03-02 17:04:00,
2013-03-02 12:09:00,44.1,-0.6,29.23,NNW,330,6.3,8.7,15,0.00,,---,0.00,VWS V13.01,2013-03-02 17:09:00,
2013-03-02 12:14:00,43.5,-1.1,29.23,NNW,333,4.0,5.8,15,0.00,,---,0.00,VWS V13.01,2013-03-02 17:14:00,
2013-03-02 12:20:00,42.3,-0.7,29.23,NW,315,5.8,8.7,16,0.00,,---,0.00,VWS V13.01,2013-03-02 17:20:00,
2013-03-02 12:25:00,42.3,-0.7,29.23,NNW,328,4.0,6.7,16,0.00,,---,0.00,VWS V13.01,2013-03-02 17:25:00,
2013-03-02 12:30:00,42.6,-0.4,29.23,NW,323,5.4,6.3,16,0.00,,---,0.00,VWS V13.01,2013-03-02 17:30:00,
2013-03-02 12:35:00,43.5,-1.1,29.23,NW,315,6.3,7.6,15,0.00,,---,0.00,VWS V13.01,2013-03-02 17:35:00,
2013-03-02 12:40:00,43.3,-1.2,29.23,NNW,328,8.3,12.3,15,0.00,,---,0.00,VWS V13.01,2013-03-02 17:40:00,
2013-03-02 12:46:00,42.8,-1.6,29.23,NNW,327,6.3,8.1,15,0.00,,---,0.00,VWS V13.01,2013-03-02 17:46:00,
2013-03-02 12:51:00,42.8,-1.6,29.21,NNW,344,3.6,5.4,15,0.00,,---,0.00,VWS V13.01,2013-03-02 17:51:00,
2013-03-02 12:56:00,42.8,-1.6,29.21,NNW,340,5.8,6.3,15,0.00,,---,0.00,VWS V13.01,2013-03-02 17:56:00,
2013-03-02 13:01:00,42.8,-1.6,29.21,NW,311,5.8,7.2,15,0.00,,---,0.00,VWS V13.01,2013-03-02 18:01:00,
2013-03-02 13:06:00,42.8,-1.6,29.23,NNW,346,8.1,8.3,15,0.00,,---,0.00,VWS V13.01,2013-03-02 18:06:00,
2013-03-02 13:12:00,42.3,-0.7,29.23,NW,319,8.1,8.1,16,0.00,,---,0.00,VWS V13.01,2013-03-02 18:12:00,
2013-03-02 13:17:00,42.3,-0.7,29.23,North,357,5.4,5.8,16,0.00,,---,0.00,VWS V13.01,2013-03-02 18:17:00,
2013-03-02 13:22:00,42.1,-0.9,29.23,NW,324,5.4,7.6,16,0.00,,---,0.00,VWS V13.01,2013-03-02 18:22:00,
2013-03-02 13:27:00,41.7,-1.2,29.23,North,9,6.3,8.1,16,0.00,,---,0.00,VWS V13.01,2013-03-02 18:27:00,
2013-03-02 13:32:00,41.5,-1.3,29.23,WNW,294,5.8,8.3,16,0.00,,---,0.00,VWS V13.01,2013-03-02 18:32:00,
2013-03-02 13:38:00,42.3,-0.7,29.21,WNW,303,4.9,8.7,16,0.00,,---,0.00,VWS V13.01,2013-03-02 18:38:00,
2013-03-02 13:43:00,41.5,-1.3,29.21,NNW,338,6.3,8.3,16,0.00,,---,0.00,VWS V13.01,2013-03-02 18:43:00,
2013-03-02 13:48:00,41.4,-1.5,29.21,NW,326,6.3,6.3,16,0.00,,---,0.00,VWS V13.01,2013-03-02 18:48:00,
2013-03-02 13:53:00,41.7,-1.2,29.21,NW,311,5.4,10.5,16,0.00,,---,0.00,VWS V13.01,2013-03-02 18:53:00,
2013-03-02 13:58:00,43.9,-0.8,29.21,NW,320,4.0,6.7,15,0.00,,---,0.00,VWS V13.01,2013-03-02 18:58:00,
2013-03-02 14:04:00,45.3,0.4,29.21,NNW,327,2.7,9.6,15,0.00,,---,0.00,VWS V13.01,2013-03-02 19:04:00,
2013-03-02 14:09:00,46.9,0.2,29.21,WNW,296,4.0,10.5,14,0.00,,---,0.00,VWS V13.01,2013-03-02 19:09:00,
2013-03-02 14:14:00,45.1,0.3,29.21,SW,223,2.2,8.1,15,0.00,,---,0.00,VWS V13.01,2013-03-02 19:14:00,
2013-03-02 14:19:00,45.1,0.3,29.21,NW,310,5.4,7.6,15,0.00,,---,0.00,VWS V13.01,2013-03-02 19:19:00,
2013-03-02 14:24:00,42.8,-1.6,29.21,WNW,303,4.0,8.7,15,0.00,,---,0.00,VWS V13.01,2013-03-02 19:24:00,
2013-03-02 14:30:00,43.2,-1.4,29.21,NW,325,4.0,9.6,15,0.00,,---,0.00,VWS V13.01,2013-03-02 19:30:00,
2013-03-02 14:35:00,45.7,0.7,29.21,NNW,332,8.3,8.3,15,0.00,,---,0.00,VWS V13.01,2013-03-02 19:35:00,
2013-03-02 14:40:00,47.3,0.5,29.21,NW,314,5.4,8.1,14,0.00,,---,0.00,VWS V13.01,2013-03-02 19:40:00,
2013-03-02 14:45:00,46.4,-0.2,29.21,NW,320,11.9,11.9,14,0.00,,---,0.00,VWS V13.01,2013-03-02 19:45:00,
2013-03-02 14:50:00,43.5,-1.1,29.21,NNW,331,7.6,11.0,15,0.00,,---,0.00,VWS V13.01,2013-03-02 19:50:00,
2013-03-02 14:56:00,42.1,-0.9,29.21,North,353,5.4,5.4,16,0.00,,---,0.00,VWS V13.01,2013-03-02 19:56:00,
2013-03-02 15:01:00,41.9,-1.0,29.21,WSW,249,4.0,5.4,16,0.00,,---,0.00,VWS V13.01,2013-03-02 20:01:00,
2013-03-02 15:06:00,41.2,-1.6,29.21,WSW,249,4.0,5.4,16,0.00,,---,0.00,VWS V13.01,2013-03-02 20:06:00,
2013-03-02 15:11:00,41.5,-1.3,29.21,NW,319,8.1,10.1,16,0.00,,---,0.00,VWS V13.01,2013-03-02 20:11:00,
2013-03-02 15:16:00,41.4,-1.5,29.21,NW,314,8.7,8.7,16,0.00,,---,0.00,VWS V13.01,2013-03-02 20:16:00,
2013-03-02 15:22:00,40.6,-2.0,29.21,NW,306,8.1,8.1,16,0.00,,---,0.00,VWS V13.01,2013-03-02 20:22:00,
2013-03-02 15:27:00,41.4,-1.5,29.21,NW,307,5.8,8.3,16,0.00,,---,0.00,VWS V13.01,2013-03-02 20:27:00,
2013-03-02 15:32:00,43.3,-1.2,29.21,NW,323,4.0,4.0,15,0.00,,---,0.00,VWS V13.01,2013-03-02 20:32:00,
2013-03-02 15:37:00,44.8,0.0,29.21,SW,229,4.0,10.5,15,0.00,,---,0.00,VWS V13.01,2013-03-02 20:37:00,
2013-03-02 15:42:00,44.2,-0.5,29.21,West,273,7.2,8.1,15,0.00,,---,0.00,VWS V13.01,2013-03-02 20:42:00,
2013-03-02 15:47:00,45.3,0.4,29.21,NNW,331,3.1,7.2,15,0.00,,---,0.00,VWS V13.01,2013-03-02 20:47:00,
2013-03-02 15:53:00,44.8,0.0,29.21,NW,312,4.0,10.1,15,0.00,,---,0.00,VWS V13.01,2013-03-02 20:53:00,
2013-03-02 15:58:00,45.3,0.4,29.21,NW,313,5.4,5.8,15,0.00,,---,0.00,VWS V13.01,2013-03-02 20:58:00,
2013-03-02 16:03:00,44.2,-0.5,29.21,NW,316,4.0,8.1,15,0.00,,---,0.00,VWS V13.01,2013-03-02 21:03:00,
2013-03-02 16:08:00,43.3,-1.2,29.21,North,357,6.7,11.9,15,0.00,,---,0.00,VWS V13.01,2013-03-02 21:08:00,
2013-03-02 16:13:00,41.7,-1.2,29.21,NNW,330,8.7,11.0,16,0.00,,---,0.00,VWS V13.01,2013-03-02 21:13:00,
2013-03-02 16:19:00,42.1,-0.9,29.21,NNW,330,8.3,12.3,16,0.00,,---,0.00,VWS V13.01,2013-03-02 21:19:00,
2013-03-02 16:24:00,42.3,-0.7,29.21,North,353,6.3,10.1,16,0.00,,---,0.00,VWS V13.01,2013-03-02 21:24:00,
2013-03-02 16:29:00,41.9,-1.0,29.21,NW,324,8.3,11.0,16,0.00,,---,0.00,VWS V13.01,2013-03-02 21:29:00,
2013-03-02 16:34:00,41.2,-1.6,29.21,NNW,334,5.4,10.1,16,0.00,,---,0.00,VWS V13.01,2013-03-02 21:34:00,
2013-03-02 16:39:00,40.8,-1.9,29.21,NW,318,6.3,10.1,16,0.00,,---,0.00,VWS V13.01,2013-03-02 21:39:00,
2013-03-02 16:44:00,40.6,-2.0,29.21,NW,313,4.0,10.5,16,0.00,,---,0.00,VWS V13.01,2013-03-02 21:44:00,
2013-03-02 16:50:00,40.5,-2.2,29.21,NNW,338,4.0,12.3,16,0.00,,---,0.00,VWS V13.01,2013-03-02 21:50:00,
2013-03-02 16:55:00,39.9,-2.6,29.21,NW,320,4.5,12.8,16,0.00,,---,0.00,VWS V13.01,2013-03-02 21:55:00,
2013-03-02 17:00:00,39.4,-3.1,29.21,NNW,338,8.1,10.5,16,0.00,,---,0.00,VWS V13.01,2013-03-02 22:00:00,
2013-03-02 17:05:00,39.2,-3.2,29.21,NW,322,4.9,8.3,16,0.00,,---,0.00,VWS V13.01,2013-03-02 22:05:00,
2013-03-02 17:10:00,39.4,-3.1,29.21,NW,314,6.3,8.1,16,0.00,,---,0.00,VWS V13.01,2013-03-02 22:10:00,
2013-03-02 17:16:00,39.2,-3.2,29.21,NW,317,6.3,8.3,16,0.00,,---,0.00,VWS V13.01,2013-03-02 22:16:00,
2013-03-02 17:21:00,38.8,-3.5,29.23,NW,325,6.3,6.3,16,0.00,,---,0.00,VWS V13.01,2013-03-02 22:21:00,
2013-03-02 17:26:00,38.7,-3.7,29.23,NW,319,6.3,8.3,16,0.00,,---,0.00,VWS V13.01,2013-03-02 22:26:00,
2013-03-02 17:31:00,38.5,-3.8,29.23,NNW,341,4.9,8.3,16,0.00,,---,0.00,VWS V13.01,2013-03-02 22:31:00,
2013-03-02 17:36:00,38.5,-3.8,29.23,NW,318,4.0,6.7,16,0.00,,---,0.00,VWS V13.01,2013-03-02 22:36:00,
2013-03-02 17:42:00,37.9,-4.2,29.23,NW,322,6.3,10.1,16,0.00,,---,0.00,VWS V13.01,2013-03-02 22:42:00,
2013-03-02 17:47:00,37.4,-4.7,29.23,NW,304,6.7,8.1,16,0.00,,---,0.00,VWS V13.01,2013-03-02 22:47:00,
2013-03-02 17:52:00,37.0,-3.7,29.23,NNW,333,5.4,6.7,17,0.00,,---,0.00,VWS V13.01,2013-03-02 22:52:00,
2013-03-02 17:57:00,36.7,-4.0,29.23,NNW,343,4.0,6.3,17,0.00,,---,0.00,VWS V13.01,2013-03-02 22:57:00,
2013-03-02 18:02:00,36.3,-4.3,29.23,NW,324,5.4,8.1,17,0.00,,---,0.00,VWS V13.01,2013-03-02 23:02:00,
2013-03-02 18:07:00,36.1,-4.5,29.23,NW,322,4.0,8.1,17,0.00,,---,0.00,VWS V13.01,2013-03-02 23:07:00,
2013-03-02 18:13:00,35.8,-4.8,29.23,NW,304,4.0,7.6,17,0.00,,---,0.00,VWS V13.01,2013-03-02 23:13:00,
2013-03-02 18:18:00,35.4,-5.1,29.23,NW,320,6.3,6.3,17,0.00,,---,0.00,VWS V13.01,2013-03-02 23:18:00,
2013-03-02 18:23:00,35.1,-5.3,29.23,NW,312,6.3,7.6,17,0.00,,---,0.00,VWS V13.01,2013-03-02 23:23:00,
2013-03-02 18:28:00,34.9,-5.5,29.23,NNW,332,4.0,6.3,17,0.00,,---,0.00,VWS V13.01,2013-03-02 23:28:00,
2013-03-02 18:33:00,34.5,-5.8,29.23,NW,317,2.7,6.3,17,0.00,,---,0.00,VWS V13.01,2013-03-02 23:33:00,
2013-03-02 18:39:00,34.5,-5.8,29.23,NNW,329,4.0,6.7,17,0.00,,---,0.00,VWS V13.01,2013-03-02 23:39:00,
2013-03-02 18:44:00,34.3,-5.9,29.23,WNW,301,6.3,8.1,17,0.00,,---,0.00,VWS V13.01,2013-03-02 23:44:00,
2013-03-02 18:49:00,34.3,-5.9,29.26,NW,312,7.6,11.4,17,0.00,,---,0.00,VWS V13.01,2013-03-02 23:49:00,
2013-03-02 18:54:00,34.2,-6.1,29.26,NNW,333,6.3,8.7,17,0.00,,---,0.00,VWS V13.01,2013-03-02 23:54:00,
2013-03-02 18:59:00,33.8,-6.4,29.26,NW,309,5.8,5.8,17,0.00,,---,0.00,VWS V13.01,2013-03-02 23:59:00,
2013-03-02 19:04:00,33.6,-5.3,29.26,NW,323,0.0,5.8,18,0.00,,---,0.00,VWS V13.01,2013-03-03 00:04:00,
2013-03-02 19:09:00,33.6,-5.3,29.26,NW,311,3.6,6.3,18,0.00,,---,0.00,VWS V13.01,2013-03-03 00:09:00,
2013-03-02 19:14:00,33.6,-5.3,29.26,WNW,298,0.0,8.1,18,0.00,,---,0.00,VWS V13.01,2013-03-03 00:14:00,
2013-03-02 19:19:00,33.8,-6.4,29.26,WNW,289,3.1,6.3,17,0.00,,---,0.00,VWS V13.01,2013-03-03 00:19:00,
2013-03-02 19:24:00,33.8,-6.4,29.26,NW,319,0.0,5.4,17,0.00,,---,0.00,VWS V13.01,2013-03-03 00:24:00,
2013-03-02 19:29:00,33.8,-6.4,29.26,West,272,3.1,4.0,17,0.00,,---,0.00,VWS V13.01,2013-03-03 00:29:00,
2013-03-02 19:34:00,33.8,-6.4,29.26,NW,313,3.1,4.0,17,0.00,,---,0.00,VWS V13.01,2013-03-03 00:34:00,
2013-03-02 19:40:00,33.6,-5.3,29.26,NNW,327,0.0,4.0,18,0.00,,---,0.00,VWS V13.01,2013-03-03 00:40:00,
2013-03-02 19:44:00,33.8,-6.4,29.26,NW,315,3.1,5.8,17,0.00,,---,0.00,VWS V13.01,2013-03-03 00:44:00,
2013-03-02 19:49:00,34.0,-6.2,29.26,NW,312,3.6,5.4,17,0.00,,---,0.00,VWS V13.01,2013-03-03 00:49:00,
2013-03-02 19:55:00,34.0,-6.2,29.26,NW,312,3.1,4.0,17,0.00,,---,0.00,VWS V13.01,2013-03-03 00:55:00,
2013-03-02 20:00:00,34.3,-5.9,29.26,NW,312,4.9,7.6,17,0.00,,---,0.00,VWS V13.01,2013-03-03 01:00:00,
2013-03-02 20:05:00,34.3,-5.9,29.26,NNW,332,3.1,3.6,17,0.00,,---,0.00,VWS V13.01,2013-03-03 01:05:00,
2013-03-02 20:10:00,34.3,-5.9,29.26,NW,312,4.0,4.0,17,0.00,,---,0.00,VWS V13.01,2013-03-03 01:10:00,
2013-03-02 20:15:00,34.3,-5.9,29.26,NNW,341,6.3,6.3,17,0.00,,---,0.00,VWS V13.01,2013-03-03 01:15:00,
2013-03-02 20:20:00,34.3,-5.9,29.26,NW,307,5.8,8.1,17,0.00,,---,0.00,VWS V13.01,2013-03-03 01:20:00,
2013-03-02 20:25:00,34.0,-6.2,29.26,NW,321,5.4,10.1,17,0.00,,---,0.00,VWS V13.01,2013-03-03 01:25:00,
2013-03-02 20:30:00,33.8,-6.4,29.26,NNW,329,4.0,7.6,17,0.00,,---,0.00,VWS V13.01,2013-03-03 01:30:00,
2013-03-02 20:36:00,33.6,-5.3,29.26,WNW,299,4.0,6.3,18,0.00,,---,0.00,VWS V13.01,2013-03-03 01:36:00,
2013-03-02 20:41:00,33.8,-6.4,29.26,North,353,6.3,6.3,17,0.00,,---,0.00,VWS V13.01,2013-03-03 01:41:00,
2013-03-02 20:46:00,33.8,-6.4,29.26,North,0,3.6,4.0,17,0.00,,---,0.00,VWS V13.01,2013-03-03 01:46:00,
2013-03-02 20:51:00,33.8,-6.4,29.26,NW,322,10.1,10.1,17,0.00,,---,0.00,VWS V13.01,2013-03-03 01:51:00,
2013-03-02 20:56:00,33.8,-6.4,29.26,NNW,336,5.8,8.7,17,0.00,,---,0.00,VWS V13.01,2013-03-03 01:56:00,
2013-03-02 21:01:00,33.6,-5.3,29.26,NNW,328,3.6,6.3,18,0.00,,---,0.00,VWS V13.01,2013-03-03 02:01:00,
2013-03-02 21:06:00,33.4,-5.5,29.29,NW,314,8.3,8.3,18,0.00,,---,0.00,VWS V13.01,2013-03-03 02:06:00,
2013-03-02 21:11:00,33.3,-5.7,29.29,NNW,333,6.3,8.1,18,0.00,,---,0.00,VWS V13.01,2013-03-03 02:11:00,
2013-03-02 21:16:00,32.7,-6.1,29.29,NW,320,7.2,8.3,18,0.00,,---,0.00,VWS V13.01,2013-03-03 02:16:00,
2013-03-02 21:21:00,32.5,-6.2,29.26,NW,314,5.8,7.6,18,0.00,,---,0.00,VWS V13.01,2013-03-03 02:21:00,
2013-03-02 21:26:00,32.0,-6.7,29.26,WNW,302,2.7,4.0,18,0.00,,---,0.00,VWS V13.01,2013-03-03 02:26:00,
2013-03-02 21:31:00,31.5,-7.2,29.26,NW,317,3.1,4.0,18,0.00,,---,0.00,VWS V13.01,2013-03-03 02:31:00,
2013-03-02 21:36:00,31.3,-7.3,29.29,NW,324,6.3,6.3,18,0.00,,---,0.00,VWS V13.01,2013-03-03 02:36:00,
2013-03-02 21:42:00,31.3,-7.3,29.29,NW,326,3.6,5.8,18,0.00,,---,0.00,VWS V13.01,2013-03-03 02:42:00,
2013-03-02 21:47:00,31.1,-7.4,29.29,NW,322,3.6,6.3,18,0.00,,---,0.00,VWS V13.01,2013-03-03 02:47:00,
2013-03-02 21:52:00,31.1,-7.4,29.29,NW,314,4.9,6.3,18,0.00,,---,0.00,VWS V13.01,2013-03-03 02:52:00,
2013-03-02 21:57:00,31.3,-7.3,29.29,NW,326,5.4,6.3,18,0.00,,---,0.00,VWS V13.01,2013-03-03 02:57:00,
2013-03-02 22:02:00,31.3,-7.3,29.29,NW,311,7.6,8.1,18,0.00,,---,0.00,VWS V13.01,2013-03-03 03:02:00,
2013-03-02 22:07:00,31.3,-7.3,29.29,NW,312,5.8,8.3,18,0.00,,---,0.00,VWS V13.01,2013-03-03 03:07:00,
2013-03-02 22:12:00,31.3,-7.3,29.29,NW,317,5.4,8.3,18,0.00,,---,0.00,VWS V13.01,2013-03-03 03:12:00,
2013-03-02 22:17:00,31.3,-7.3,29.29,WNW,287,2.2,8.3,18,0.00,,---,0.00,VWS V13.01,2013-03-03 03:17:00,
2013-03-02 22:22:00,31.1,-7.4,29.29,NNW,331,4.0,8.3,18,0.00,,---,0.00,VWS V13.01,2013-03-03 03:22:00,
2013-03-02 22:27:00,31.1,-7.4,29.29,NW,325,5.8,8.1,18,0.00,,---,0.00,VWS V13.01,2013-03-03 03:27:00,
2013-03-02 22:32:00,31.1,-7.4,29.29,WNW,300,6.3,8.1,18,0.00,,---,0.00,VWS V13.01,2013-03-03 03:32:00,
2013-03-02 22:37:00,30.9,-7.6,29.29,South,184,7.6,8.7,18,0.00,,---,0.00,VWS V13.01,2013-03-03 03:37:00,
2013-03-02 22:42:00,31.1,-7.4,29.29,NW,325,7.6,12.3,18,0.00,,---,0.00,VWS V13.01,2013-03-03 03:42:00,
2013-03-02 22:48:00,31.1,-7.4,29.29,NNW,340,4.0,8.7,18,0.00,,---,0.00,VWS V13.01,2013-03-03 03:48:00,
2013-03-02 22:53:00,31.1,-7.4,29.29,NW,316,4.0,10.5,18,0.00,,---,0.00,VWS V13.01,2013-03-03 03:53:00,
2013-03-02 22:58:00,30.7,-7.7,29.29,NW,319,4.0,10.1,18,0.00,,---,0.00,VWS V13.01,2013-03-03 03:58:00,
2013-03-02 23:03:00,30.7,-7.7,29.29,WNW,293,4.9,10.1,18,0.00,,---,0.00,VWS V13.01,2013-03-03 04:03:00,
2013-03-02 23:08:00,30.6,-7.9,29.29,North,353,5.4,7.6,18,0.00,,---,0.00,VWS V13.01,2013-03-03 04:08:00,
2013-03-02 23:13:00,30.4,-8.0,29.29,NW,321,5.8,8.3,18,0.00,,---,0.00,VWS V13.01,2013-03-03 04:13:00,
2013-03-02 23:18:00,30.2,-8.2,29.29,NW,312,5.4,5.8,18,0.00,,---,0.00,VWS V13.01,2013-03-03 04:18:00,
2013-03-02 23:23:00,30.0,-8.3,29.29,NW,324,4.9,11.0,18,0.00,,---,0.00,VWS V13.01,2013-03-03 04:23:00,
2013-03-02 23:28:00,29.7,-8.6,29.29,WNW,302,4.0,6.7,18,0.00,,---,0.00,VWS V13.01,2013-03-03 04:28:00,
2013-03-02 23:33:00,29.8,-8.5,29.26,NW,321,5.4,8.3,18,0.00,,---,0.00,VWS V13.01,2013-03-03 04:33:00,
2013-03-02 23:38:00,29.8,-8.5,29.26,NNW,332,5.8,10.1,18,0.00,,---,0.00,VWS V13.01,2013-03-03 04:38:00,
2013-03-02 23:43:00,29.8,-8.5,29.26,NNW,335,8.1,10.1,18,0.00,,---,0.00,VWS V13.01,2013-03-03 04:43:00,
2013-03-02 23:48:00,29.8,-8.5,29.26,NW,311,6.3,10.1,18,0.00,,---,0.00,VWS V13.01,2013-03-03 04:48:00,
2013-03-02 23:54:00,30.0,-8.3,29.26,NW,323,5.4,10.5,18,0.00,,---,0.00,VWS V13.01,2013-03-03 04:54:00,
2013-03-02 23:59:00,29.8,-8.5,29.26,NW,326,5.4,10.1,18,0.00,,---,0.00,VWS V13.01,2013-03-03 04:59:00,